Weather History for McComb, MS

Change the Weather History Date:

Monday, January 21, 2013

  Actual Average Record
Temperature  
Mean Temperature 50 °F -  
Max Temperature 64 °F 56 °F 80 °F (1982)
Min Temperature 36 °F 34 °F 2 °F (1985)
Degree Days  
Heating Degree Days 15    
Moisture  
Dew Point 39 °F    
Average Humidity 68    
Maximum Humidity 97    
Minimum Humidity 40    
Precipitation  
Precipitation 0.00 in - - ()
Sea Level Pressure  
Sea Level Pressure 30.19 in    
Wind  
Wind Speed 2 mph (North)    
Max Wind Speed 8 mph    
Max Gust Speed -    
Visibility 10 miles    
Events      
Averages and records for this station are not official NWS values.
T = Trace of Precipitation, MM = Missing Value Source: NWS Daily Summary

Daily Weather History Graph

Daily Weather History Graph

Search for Another Location

Airport:

Trip Planner

Search our weather history database for the weather conditions in past years. The results will help you decide how hot, cold, wet, or windy it might be!

Date:

Astronomy

Jan. 21, 2013 Rise Set
Actual Time 6:59 AM CST 5:27 PM CST
Civil Twilight 6:33 AM CST 5:53 PM CST
Nautical Twilight 6:03 AM CST 6:22 PM CST
Astronomical Twilight 5:35 AM CST 6:51 PM CST
Moon 1:08 PM CST (1/21) 2:27 AM CST (1/21)
Length of Visible Light 11h 20m
Length of Day
10h 28m
Waxing Gibbous, 75% of the Moon is Illuminated
Jan 21
Waxing Gibbous
Jan 26
Full
Feb 3
Last Quarter
Feb 10
New
Feb 17
First Quarter

Hourly Weather History & Observations

Time (CST) Temp. Windchill Dew Point Humidity Pressure Visibility Wind Dir Wind Speed Gust Speed Precip Events Conditions
12:53 AM 37.9 °F - 36.0 °F 93% 30.15 in 10.0 mi Calm Calm - N/A   Clear
1:53 AM 37.0 °F - 36.0 °F 96% 30.14 in 10.0 mi Calm Calm - N/A   Clear
3:53 AM 39.0 °F - 37.0 °F 93% 30.15 in 10.0 mi Calm Calm - N/A   Clear
4:53 AM 39.0 °F - 36.0 °F 89% 30.16 in 10.0 mi Calm Calm - N/A   Clear
5:53 AM 37.0 °F - 36.0 °F 96% 30.17 in 10.0 mi Calm Calm - N/A   Clear
6:53 AM 36.0 °F 33.3 °F 35.1 °F 97% 30.19 in 10.0 mi NNW 3.5 mph - N/A   Clear
7:53 AM 39.9 °F - 37.9 °F 93% 30.20 in 10.0 mi Calm Calm - N/A   Clear
8:53 AM 52.0 °F - 43.0 °F 71% 30.22 in 10.0 mi Calm Calm - N/A   Clear
9:53 AM 57.0 °F - 42.1 °F 57% 30.23 in 10.0 mi North 4.6 mph - N/A   Clear
10:53 AM 61.0 °F - 39.9 °F 46% 30.23 in 10.0 mi Calm Calm - N/A   Clear
11:53 AM 63.0 °F - 39.9 °F 43% 30.20 in 10.0 mi North 3.5 mph - N/A   Clear
12:53 PM 64.0 °F - 39.9 °F 41% 30.18 in 10.0 mi North 8.1 mph - N/A   Clear
1:53 PM 64.9 °F - 39.9 °F 40% 30.17 in 10.0 mi NNW 5.8 mph - N/A   Scattered Clouds
2:53 PM 64.0 °F - 39.9 °F 41% 30.17 in 10.0 mi North 4.6 mph - N/A   Scattered Clouds
3:53 PM 64.0 °F - 41.0 °F 43% 30.18 in 10.0 mi North 8.1 mph - N/A   Partly Cloudy
4:53 PM 61.0 °F - 44.1 °F 54% 30.19 in 10.0 mi NNW 6.9 mph - N/A   Clear
5:53 PM 57.9 °F - 44.1 °F 60% 30.21 in 10.0 mi North 5.8 mph - N/A   Clear
6:53 PM 55.9 °F - 44.1 °F 64% 30.22 in 10.0 mi NNE 4.6 mph - N/A   Clear
7:53 PM 53.1 °F - 42.1 °F 66% 30.21 in 10.0 mi North 5.8 mph - N/A   Clear
8:53 PM 50.0 °F - 39.9 °F 68% 30.22 in 10.0 mi NNE 4.6 mph - N/A   Clear
9:53 PM 48.0 °F - 39.0 °F 71% 30.22 in 10.0 mi North 4.6 mph - N/A   Clear
10:53 PM 46.9 °F - 37.9 °F 71% 30.23 in 10.0 mi NNE 5.8 mph - N/A   Clear
11:53 PM 45.0 °F 43.5 °F 37.0 °F 74% 30.22 in 10.0 mi NE 3.5 mph - N/A   Clear